www.pogodaiklimat.ru

Погода и климат >> Архив погоды >> Россия >> Архангельская область >> Калгачиха


ПОГОДА в Калгачихе

  • Прогноз погоды в Калгачихе
  • Монитор погоды в Калгачихе

АРХИВ ПОГОДЫ в Калгачихе

Время (UTC), дата Ветер
(напр.,м/с)
 
Видим.   Явления Облачность Т
(С)
Тd
(С)
f
(%)
Тe
(С)
Тes
(С)
Комфортность P
(гПа)
Po
(гПа)
Тmin
(С)
Tmax
(С)
R
(мм)
R24
(мм)
S
(см)
18 17.06 СЗ 1 н/о н/о +19.0 +8.6 51 +21 +21 комфорт 1007.9 986.7
21 17.06 Ю 2 н/о н/о +10.6 +7.3 80 +9 +9 1008.6 986.7
00 18.06 Ю 1 н/о н/о +10.5 +8.6 88 +10 +10 1007.1 985.3
03 18.06 З 2 н/о н/о +15.2 +12.3 83 +15 +15 1006.8 985.3
06 18.06 З 2 н/о н/о +20.0 +13.7 67 +23 +23 комфорт 1006.4 985.3
09 18.06 СЗ 4 н/о н/о +19.9 +13.4 66 +22 +22 комфорт 1007.8 986.7
12 18.06 С 3 н/о н/о +20.2 +13.9 67 +23 +23 комфорт 1007.8 986.7
15 18.06 С 4
{13}
н/о н/о +14.1 +13.3 95 +13 +13 1008.3 986.7
18 18.06 штиль 0 н/о н/о +15.9 +15.1 95 +16 +16 1009.4 988.0
21 18.06 СВ 1 н/о н/о +11.3 +11.0 98 +11 +11 1011.2 989.3
00 19.06 Ю 1 н/о н/о +8.7 +8.8 101 +8 +8 1011.4 989.3
03 19.06 Ю 1 н/о н/о +11.4 +11.6 101 +11 +11 1009.8 988.0
06 19.06 З 4 н/о н/о +18.1 +13.8 76 +18 +18 1009.3 988.0
09 19.06 З 5 н/о н/о +20.6 +12.0 58 +23 +23 комфорт 1009.1 988.0
12 19.06 З 5 н/о н/о +20.6 +11.8 57 +23 +23 комфорт 1007.8 986.7
15 19.06 С 1 н/о н/о +16.0 +13.5 85 +17 +17 1008.1 986.7
18 19.06 З 4 н/о н/о +16.4 +12.9 80 +16 +16 1008.1 986.7
21 19.06 З 3 н/о н/о +13.2 +12.7 97 +12 +12 1009.7 988.0
00 20.06 СЗ 2 н/о н/о +12.4 +12.2 99 +11 +11 1011.1 989.3
03 20.06 СВ 3 н/о н/о +11.1 +9.2 88 +9 +9 1013.9 992.0
06 20.06 С 3 н/о н/о +13.5 +7.0 65 +12 +12 1015.1 993.3
09 20.06 СВ 2 н/о н/о +16.6 +4.0 43 +17 +17 1016.3 994.7
12 20.06 СЗ 2 н/о н/о +18.5 +5.0 41 +19 +19 1016.2 994.7
15 20.06 СВ 3 н/о н/о +18.0 +5.6 44 +18 +18 1016.2 994.7
18 20.06 В 2 н/о н/о +15.9 +5.5 50 +16 +16 1016.4 994.7
21 20.06 ЮВ 2 н/о н/о +11.4 +5.9 69 +10 +10 1016.7 994.7
00 21.06 ЮВ 2 н/о н/о +12.2 +5.8 65 +11 +11 1016.6 994.7
03 21.06 ЮВ 2 н/о н/о +11.6 +7.3 75 +11 +11 1015.3 993.3
06 21.06 Ю 2 н/о н/о +20.7 +13.6 64 +24 +24 комфорт 1013.2 992.0
09 21.06 З 3 н/о н/о +24.2 +14.0 53 +27 +27 жарко 1011.6 990.7
12 21.06 ЮЗ 3 н/о н/о +26.4 +11.7 40 +28 +28 жарко 1010.0 989.3
15 21.06 ЮЗ 3 н/о н/о +25.6 +13.1 46 +28 +28 жарко 1008.8 988.0
18 21.06 ЮЗ 3 н/о н/о +23.7 +13.8 54 +26 +26 жарко 1007.6 986.7
21 21.06 ЮЗ 3 н/о н/о +20.0 +14.6 71 +22 +22 комфорт 1007.8 986.7
00 22.06 З 1 н/о н/о +15.9 +14.4 91 +17 +17 1008.1 986.7
03 22.06 З 1 н/о н/о +18.3 +15.0 81 +20 +20 1007.9 986.7
06 22.06 З 1 н/о н/о +22.8 +15.9 65 +27 +27 душно 1007.6 986.7
09 22.06 З 2 н/о н/о +25.5 +15.2 53 +28 +28 жарко 1006.0 985.3
12 22.06 Ю 3
{17}
н/о н/о +20.6 +17.4 82 +25 +25 комфорт 1006.3 985.3
15 22.06 З 3 н/о н/о +21.3 +14.7 66 +24 +24 комфорт 1006.3 985.3
18 22.06 З 3
{14}
н/о н/о +15.1 +13.1 88 +14 +14 1008.2 986.7
21 22.06 З 5 н/о н/о +13.8 +10.0 78 +12 +12 1009.6 988.0
00 23.06 З 6
{13}
н/о н/о +11.0 +7.1 77 +8 +8 1011.2 989.3
03 23.06 З 5 н/о н/о +12.3 +8.2 76 +10 +10 1011.1 989.3
06 23.06 З 6
{14}
н/о н/о +13.9 +7.7 66 +12 +12 1011.0 989.3
09 23.06 З 7
{16}
н/о н/о +14.1 +7.6 65 +12 +12 1012.4 990.7
12 23.06 З 7
{15}
н/о н/о +14.1 +7.2 63 +12 +12 1013.7 992.0
15 23.06 СЗ 4
{15}
н/о н/о +13.0 +8.3 73 +11 +11 1015.1 993.3
18 23.06 СЗ 5
{15}
н/о н/о +10.3 +8.4 88 +7 +7 1016.8 994.7
21 23.06 З 6 н/о н/о +9.8 +8.1 89 +6 +6 1016.8 994.7
00 24.06 СЗ 5 н/о н/о +9.4 +7.5 88 +6 +6 1018.2 996.0
03 24.06 СЗ 4 н/о н/о +9.5 +7.9 90 +7 +7 1018.2 996.0
06 24.06 СЗ 4 н/о н/о +10.0 +7.9 87 +7 1019.5 997.3
09 24.06 СВ 3 н/о н/о +9.1 +7.7 91 +7 +7 1022.3 1000.0
12 24.06 С 3 н/о н/о +10.8 +7.1 78 +9 1023.5 1001.3
15 24.06 С 4 н/о н/о +7.5 +4.1 79 +4 1025.2 1002.7

 

Местоположение метеостанции Калгачиха (Архангельская область, Россия): широта 63.33 долгота 36.70 высота над уровнем моря 183 м.

В архиве по умолчанию представлена погода в Калгачихе за последнюю неделю. Архивные данные за месяц целиком и за предыдущие месяцы, начиная с января 2011 года, Вы можете получить, выбрав интересующий диапазон дат из раскрывающегося списка и нажав кнопку "Ввод!".


*Определитесь, кто Вы:
робот инопланетянин человек

Внимание! Время в таблицах - всемирное. Для получения местного времени необходимо прибавить поправку, которая равна 3 ч.

Смотрите также архив погоды в соседних городах и на ближайших метеорологических станциях:

Погода в Онеге (Архангельская область, Россия) (95 км)
Погода в Колежме (Карелия, Россия) (108 км)
Погода в Медвежьегорске (Карелия, Россия) (123 км)
Погода в Турчасово (Архангельская область, Россия) (129 км)
Погода в Сегеже (Карелия, Россия) (129 км)
Погода в Разнаволоке (Карелия, Россия) (162 км)
Погода в Паданах (Карелия, Россия) (164 км)
Погода в Пудоже (Карелия, Россия) (170 км)
Погода в Кондопоге (Карелия, Россия) (178 км)
Погода в Маячном (Карелия, Россия) (184 км)

Пояснения к столбцам:

Ветер - указаны скорость ветра в м/с - средняя за 10 мин, порывы в срок и между сроками (в фигурных скобках) и направление, откуда дует ветер: С - северный, СВ - северо-восточный, В - восточный, ЮВ - юго-восточный, Ю - южный, ЮЗ - юго-западный, З - западный, СЗ - северо-западный.
Видимость - горизонтальная дальность видимости в метрах или километрах. При видимости от 1 до 10 км при отсутствии осадков обычно наблюдается дымка, при ухудшении видимости до 1 км и менее - туман. В сухую погоду видимость может ухудшаться дымом, пылью или мглою.
Явления - указаны атмосферные явления, наблюдавшиеся в срок или в последний час перед сроком; фигурными скобками обозначены явления, наблюдавшиеся между сроками (за 1-3 часа до срока); квадратными скобками обозначены град или гололедные отложения с указанием их диаметра в мм.
Облачность - указаны через наклонную черту общая и нижняя облачность в баллах и высота нижней границы облаков в метрах; квадратными скобками обозначены формы облаков: Ci - перистые, Cs - перисто-слоистые, Cc - перисто-кучевые, Ac - высококучевые, As - высокослоистые, Sc - слоисто-кучевые, Ns - слоисто-дождевые, Cu - кучевые, Cb - кучево-дождевые. Подробнее классификацию облаков см. в Атласе облаков (PDF).
T - Температура воздуха - температура, измеренная на высоте 2 м над землей.
Td - Температура точки росы - температура, при понижении до которой содержащийся в воздухе водяной пар достигнет насыщения.
f - Относительная влажность воздуха - влажноcть воздуха, измеренная на высоте 2 м над землей.
Te - Эффективная температура - температура, которую ощущает одетый по сезону человек в тени. Характеристика душности погоды. При расчете учитывается влияние влажности воздуха и скорости ветра на теплоощущения человека.
Tes - Эффективная температура на солнце - температура, которую ощущает человек, с поправкой на солнечный нагрев. Характеристика знойности погоды. Зависит от высоты солнца над горизонтом, облачности и скорости ветра. Ночью, в пасмурную погоду, а также при ветре 12 м/с и более поправка равна нулю.
P - Атмосферное давление - приведенное к уровню моря атмосферное давление.
Po - Атмосферное давление - измеренное на уровне метеостанции атмосферное давление.
Tmin - Минимальная температура - минимум температуры воздуха на высоте 2 м над землей.
Tmax - Максимальная температура - максимум температуры воздуха на высоте 2 м над землей.
R - Количество осадков - Количество выпавших осадков за период времени, мм. При наведении курсора мыши на число - период времени, за который выпало указанное количество осадков.
R24 - Количество осадков - Количество выпавших осадков за 24 часа, мм.
S - Снежный покров - Высота снежного покрова, см. При наведении курсора мыши на число - состояние снежного покрова и степень покрытия местности в баллах.